Time,TemperatureF,DewpointF,PressureIn,WindDirection,WindDirectionDegrees,WindSpeedMPH,WindSpeedGustMPH,Humidity,HourlyPrecipIn,Conditions,Clouds,dailyrainin,SoftwareType,DateUTC
2013-01-24 00:00:00,4.0,1.5,30.01,SE,135,0.0,1.0,89,0.00,,---,0.00,VWS V14.01,2013-01-24 05:00:00,
2013-01-24 00:01:00,4.0,1.7,30.01,SE,135,0.0,0.0,90,0.00,,---,0.00,VWS V14.01,2013-01-24 05:01:00,
2013-01-24 00:03:00,4.0,1.7,30.00,SE,135,0.0,0.0,90,0.00,,---,0.00,VWS V14.01,2013-01-24 05:03:00,
2013-01-24 00:08:00,4.0,1.7,30.01,SE,135,0.0,0.0,90,0.00,,---,0.00,VWS V14.01,2013-01-24 05:08:00,
2013-01-24 00:13:00,4.0,1.7,30.01,SE,135,0.0,0.0,90,0.00,,---,0.00,VWS V14.01,2013-01-24 05:13:00,
2013-01-24 00:18:00,4.0,1.7,30.00,SE,135,0.0,0.0,90,0.00,,---,0.00,VWS V14.01,2013-01-24 05:18:00,
2013-01-24 00:23:00,4.0,1.7,30.00,SE,135,0.0,0.0,90,0.00,,---,0.00,VWS V14.01,2013-01-24 05:23:00,
2013-01-24 00:28:00,4.0,1.7,30.01,SE,135,0.0,0.0,90,0.00,,---,0.00,VWS V14.01,2013-01-24 05:28:00,
2013-01-24 00:33:00,4.0,1.7,30.00,SE,135,0.0,0.0,90,0.00,,---,0.00,VWS V14.01,2013-01-24 05:33:00,
2013-01-24 00:39:00,4.0,1.7,30.01,SE,135,0.0,1.0,90,0.00,,---,0.00,VWS V14.01,2013-01-24 05:39:00,
2013-01-24 00:44:00,4.0,1.7,30.01,WSW,248,0.0,0.0,90,0.00,,---,0.00,VWS V14.01,2013-01-24 05:44:00,
2013-01-24 00:49:00,4.0,1.7,30.01,WSW,248,0.0,0.0,90,0.00,,---,0.00,VWS V14.01,2013-01-24 05:49:00,
2013-01-24 00:54:00,4.0,1.7,30.00,WSW,248,0.0,0.0,90,0.00,,---,0.00,VWS V14.01,2013-01-24 05:54:00,
2013-01-24 00:59:00,4.0,1.7,30.00,WSW,248,0.0,0.0,90,0.00,,---,0.00,VWS V14.01,2013-01-24 05:59:00,
2013-01-24 01:04:00,4.0,2.0,30.00,SW,225,0.0,1.0,91,0.00,,---,0.00,VWS V14.01,2013-01-24 06:04:00,
2013-01-24 01:09:00,4.0,2.0,30.00,SW,225,0.0,1.0,91,0.00,,---,0.00,VWS V14.01,2013-01-24 06:09:00,
2013-01-24 01:15:00,4.0,1.7,30.00,SW,225,0.0,1.0,90,0.00,,---,0.00,VWS V14.01,2013-01-24 06:15:00,
2013-01-24 01:20:00,4.0,1.7,30.00,SW,225,0.0,1.0,90,0.00,,---,0.00,VWS V14.01,2013-01-24 06:20:00,
2013-01-24 01:25:00,4.0,1.7,30.00,SW,225,0.0,0.0,90,0.00,,---,0.00,VWS V14.01,2013-01-24 06:25:00,
2013-01-24 01:30:00,4.0,1.7,30.00,SW,225,0.0,0.0,90,0.00,,---,0.00,VWS V14.01,2013-01-24 06:30:00,
2013-01-24 01:35:00,4.0,1.7,30.00,SW,225,0.0,0.0,90,0.00,,---,0.00,VWS V14.01,2013-01-24 06:35:00,
2013-01-24 01:40:00,4.0,1.7,30.00,SW,225,0.0,0.0,90,0.00,,---,0.00,VWS V14.01,2013-01-24 06:40:00,
2013-01-24 01:45:00,4.0,1.7,30.01,NE,45,0.0,1.0,90,0.00,,---,0.00,VWS V14.01,2013-01-24 06:45:00,
2013-01-24 01:50:00,3.0,0.7,30.01,North,0,0.0,1.0,90,0.00,,---,0.00,VWS V14.01,2013-01-24 06:50:00,
2013-01-24 01:55:00,3.0,0.7,30.01,North,0,0.0,1.0,90,0.00,,---,0.00,VWS V14.01,2013-01-24 06:55:00,
2013-01-24 02:00:00,3.0,0.7,30.01,West,270,1.0,1.0,90,0.00,,---,0.00,VWS V14.01,2013-01-24 07:00:00,
2013-01-24 02:06:00,3.0,0.7,30.01,West,270,0.0,1.0,90,0.00,,---,0.00,VWS V14.01,2013-01-24 07:06:00,
2013-01-24 02:11:00,3.0,1.0,30.02,West,270,0.0,1.0,91,0.00,,---,0.00,VWS V14.01,2013-01-24 07:11:00,
2013-01-24 02:16:00,3.0,1.0,30.02,West,270,0.0,1.0,91,0.00,,---,0.00,VWS V14.01,2013-01-24 07:16:00,
2013-01-24 02:21:00,3.0,1.0,30.02,West,270,0.0,0.0,91,0.00,,---,0.00,VWS V14.01,2013-01-24 07:21:00,
2013-01-24 02:26:00,3.0,1.0,30.02,West,270,0.0,0.0,91,0.00,,---,0.00,VWS V14.01,2013-01-24 07:26:00,
2013-01-24 02:31:00,3.0,1.0,30.03,West,270,0.0,0.0,91,0.00,,---,0.00,VWS V14.01,2013-01-24 07:31:00,
2013-01-24 02:37:00,3.0,0.7,30.03,West,270,0.0,0.0,90,0.00,,---,0.00,VWS V14.01,2013-01-24 07:37:00,
2013-01-24 02:42:00,3.0,0.7,30.03,West,270,0.0,0.0,90,0.00,,---,0.00,VWS V14.01,2013-01-24 07:42:00,
2013-01-24 02:47:00,2.0,-0.2,30.03,West,270,0.0,0.0,90,0.00,,---,0.00,VWS V14.01,2013-01-24 07:47:00,
2013-01-24 02:52:00,2.0,-0.2,30.04,WNW,292,0.0,0.0,90,0.00,,---,0.00,VWS V14.01,2013-01-24 07:52:00,
2013-01-24 02:57:00,2.0,-0.2,30.04,WNW,292,0.0,0.0,90,0.00,,---,0.00,VWS V14.01,2013-01-24 07:57:00,
2013-01-24 03:02:00,1.0,-1.2,30.04,WNW,292,0.0,0.0,90,0.00,,---,0.00,VWS V14.01,2013-01-24 08:02:00,
2013-01-24 03:07:00,1.0,-1.2,30.04,WNW,292,0.0,0.0,90,0.00,,---,0.00,VWS V14.01,2013-01-24 08:07:00,
2013-01-24 03:12:00,1.0,-1.2,30.05,WNW,292,0.0,0.0,90,0.00,,---,0.00,VWS V14.01,2013-01-24 08:12:00,
2013-01-24 03:18:00,1.0,-1.2,30.05,SSE,158,0.0,0.0,90,0.00,,---,0.00,VWS V14.01,2013-01-24 08:18:00,
2013-01-24 03:23:00,1.0,-1.2,30.05,SSE,158,0.0,0.0,90,0.00,,---,0.00,VWS V14.01,2013-01-24 08:23:00,
2013-01-24 03:28:00,1.0,-1.2,30.05,SSE,158,0.0,1.0,90,0.00,,---,0.00,VWS V14.01,2013-01-24 08:28:00,
2013-01-24 03:33:00,1.0,-1.0,30.05,SSE,158,0.0,1.0,91,0.00,,---,0.00,VWS V14.01,2013-01-24 08:33:00,
2013-01-24 03:38:00,1.0,-1.2,30.05,SSE,158,0.0,1.0,90,0.00,,---,0.00,VWS V14.01,2013-01-24 08:38:00,
2013-01-24 03:43:00,0.0,-2.2,30.06,WSW,248,0.0,0.0,90,0.00,,---,0.00,VWS V14.01,2013-01-24 08:43:00,
2013-01-24 03:48:00,1.0,-1.2,30.06,WSW,248,0.0,0.0,90,0.00,,---,0.00,VWS V14.01,2013-01-24 08:48:00,
2013-01-24 03:53:00,0.0,-2.2,30.06,WSW,248,0.0,0.0,90,0.00,,---,0.00,VWS V14.01,2013-01-24 08:53:00,
2013-01-24 03:58:00,0.0,-2.2,30.07,WSW,248,0.0,0.0,90,0.00,,---,0.00,VWS V14.01,2013-01-24 08:58:00,
2013-01-24 04:04:00,0.0,-2.2,30.07,WSW,248,0.0,0.0,90,0.00,,---,0.00,VWS V14.01,2013-01-24 09:04:00,
2013-01-24 04:09:00,0.0,-2.2,30.07,WSW,248,0.0,0.0,90,0.00,,---,0.00,VWS V14.01,2013-01-24 09:09:00,
2013-01-24 04:14:00,0.0,-2.2,30.07,WSW,248,0.0,0.0,90,0.00,,---,0.00,VWS V14.01,2013-01-24 09:14:00,
2013-01-24 04:19:00,0.0,-2.2,30.07,WSW,248,0.0,0.0,90,0.00,,---,0.00,VWS V14.01,2013-01-24 09:19:00,
2013-01-24 04:24:00,0.0,-2.2,30.07,WSW,248,0.0,0.0,90,0.00,,---,0.00,VWS V14.01,2013-01-24 09:24:00,
2013-01-24 04:29:00,0.0,-2.0,30.07,WSW,248,0.0,0.0,91,0.00,,---,0.00,VWS V14.01,2013-01-24 09:29:00,
2013-01-24 04:34:00,0.0,-2.0,30.08,WSW,248,0.0,0.0,91,0.00,,---,0.00,VWS V14.01,2013-01-24 09:34:00,
2013-01-24 04:39:00,0.0,-2.0,30.08,WSW,248,0.0,0.0,91,0.00,,---,0.00,VWS V14.01,2013-01-24 09:39:00,
2013-01-24 04:44:00,0.0,-2.2,30.08,WSW,248,0.0,0.0,90,0.00,,---,0.00,VWS V14.01,2013-01-24 09:44:00,
2013-01-24 04:49:00,0.0,-2.2,30.08,WSW,248,0.0,0.0,90,0.00,,---,0.00,VWS V14.01,2013-01-24 09:49:00,
2013-01-24 04:54:00,0.0,-2.2,30.09,WSW,248,0.0,0.0,90,0.00,,---,0.00,VWS V14.01,2013-01-24 09:54:00,
2013-01-24 04:59:00,0.0,-2.2,30.09,North,0,0.0,0.0,90,0.00,,---,0.00,VWS V14.01,2013-01-24 09:59:00,
2013-01-24 05:04:00,-1.0,-3.2,30.09,North,0,0.0,0.0,90,0.00,,---,0.00,VWS V14.01,2013-01-24 10:04:00,
2013-01-24 05:10:00,-1.0,-3.5,30.10,North,0,0.0,0.0,89,0.00,,---,0.00,VWS V14.01,2013-01-24 10:10:00,
2013-01-24 05:15:00,-1.0,-3.2,30.10,North,0,0.0,0.0,90,0.00,,---,0.00,VWS V14.01,2013-01-24 10:15:00,
2013-01-24 05:20:00,-1.0,-3.2,30.10,North,0,0.0,0.0,90,0.00,,---,0.00,VWS V14.01,2013-01-24 10:20:00,
2013-01-24 05:25:00,-1.0,-3.2,30.10,WNW,292,0.0,0.0,90,0.00,,---,0.00,VWS V14.01,2013-01-24 10:25:00,
2013-01-24 05:30:00,-1.0,-3.2,30.11,WNW,292,0.0,0.0,90,0.00,,---,0.00,VWS V14.01,2013-01-24 10:30:00,
2013-01-24 05:35:00,-1.0,-3.2,30.11,WNW,292,0.0,0.0,90,0.00,,---,0.00,VWS V14.01,2013-01-24 10:35:00,
2013-01-24 05:40:00,-1.0,-3.2,30.12,WNW,292,0.0,0.0,90,0.00,,---,0.00,VWS V14.01,2013-01-24 10:40:00,
2013-01-24 05:45:00,-1.0,-3.2,30.12,WNW,292,0.0,0.0,90,0.00,,---,0.00,VWS V14.01,2013-01-24 10:45:00,
2013-01-24 05:50:00,-2.0,-4.2,30.12,WSW,248,0.0,1.0,90,0.00,,---,0.00,VWS V14.01,2013-01-24 10:50:00,
2013-01-24 05:55:00,-2.0,-4.2,30.13,WSW,248,0.0,1.0,90,0.00,,---,0.00,VWS V14.01,2013-01-24 10:55:00,
2013-01-24 06:00:00,-2.0,-4.2,30.13,WSW,248,0.0,0.0,90,0.00,,---,0.00,VWS V14.01,2013-01-24 11:00:00,
2013-01-24 06:05:00,-2.0,-4.2,30.13,WSW,248,0.0,0.0,90,0.00,,---,0.00,VWS V14.01,2013-01-24 11:05:00,
2013-01-24 06:11:00,-3.0,-5.4,30.13,WSW,248,0.0,0.0,89,0.00,,---,0.00,VWS V14.01,2013-01-24 11:11:00,
2013-01-24 06:16:00,-3.0,-5.2,30.14,West,270,0.0,1.0,90,0.00,,---,0.00,VWS V14.01,2013-01-24 11:16:00,
2013-01-24 06:21:00,-3.0,-5.2,30.14,West,270,0.0,0.0,90,0.00,,---,0.00,VWS V14.01,2013-01-24 11:21:00,
2013-01-24 06:26:00,-3.0,-5.4,30.15,West,270,0.0,1.0,89,0.00,,---,0.00,VWS V14.01,2013-01-24 11:26:00,
2013-01-24 06:31:00,-3.0,-5.4,30.16,West,270,0.0,1.0,89,0.00,,---,0.00,VWS V14.01,2013-01-24 11:31:00,
2013-01-24 06:36:00,-4.0,-6.4,30.16,NNE,22,0.0,1.0,89,0.00,,---,0.00,VWS V14.01,2013-01-24 11:36:00,
2013-01-24 06:41:00,-5.0,-7.4,30.17,NNE,22,0.0,0.0,89,0.00,,---,0.00,VWS V14.01,2013-01-24 11:41:00,
2013-01-24 06:47:00,-5.0,-7.4,30.17,SSW,202,0.0,0.0,89,0.00,,---,0.00,VWS V14.01,2013-01-24 11:47:00,
2013-01-24 06:52:00,-5.0,-7.2,30.18,SSW,202,0.0,0.0,90,0.00,,---,0.00,VWS V14.01,2013-01-24 11:52:00,
2013-01-24 06:57:00,-5.0,-7.2,30.18,SSW,202,0.0,0.0,90,0.00,,---,0.00,VWS V14.01,2013-01-24 11:57:00,
2013-01-24 07:02:00,-5.0,-7.4,30.18,SSW,202,0.0,0.0,89,0.00,,---,0.00,VWS V14.01,2013-01-24 12:02:00,
2013-01-24 07:07:00,-5.0,-7.4,30.19,SSW,202,0.0,0.0,89,0.00,,---,0.00,VWS V14.01,2013-01-24 12:07:00,
2013-01-24 07:12:00,-5.0,-7.4,30.19,SSW,202,0.0,0.0,89,0.00,,---,0.00,VWS V14.01,2013-01-24 12:12:00,
2013-01-24 07:17:00,-6.0,-8.4,30.19,SSW,202,0.0,0.0,89,0.00,,---,0.00,VWS V14.01,2013-01-24 12:17:00,
2013-01-24 07:22:00,-5.0,-7.2,30.19,SSW,202,0.0,0.0,90,0.00,,---,0.00,VWS V14.01,2013-01-24 12:22:00,
2013-01-24 07:27:00,-5.0,-7.2,30.20,WNW,292,0.0,0.0,90,0.00,,---,0.00,VWS V14.01,2013-01-24 12:27:00,
2013-01-24 07:33:00,-6.0,-8.4,30.20,WNW,292,0.0,0.0,89,0.00,,---,0.00,VWS V14.01,2013-01-24 12:33:00,
2013-01-24 07:38:00,-6.0,-8.4,30.20,SW,225,0.0,0.0,89,0.00,,---,0.00,VWS V14.01,2013-01-24 12:38:00,
2013-01-24 07:43:00,-6.0,-8.2,30.21,SW,225,0.0,0.0,90,0.00,,---,0.00,VWS V14.01,2013-01-24 12:43:00,
2013-01-24 07:48:00,-5.0,-7.2,30.21,SW,225,0.0,0.0,90,0.00,,---,0.00,VWS V14.01,2013-01-24 12:48:00,
2013-01-24 07:53:00,-5.0,-6.9,30.22,WSW,248,0.0,0.0,91,0.00,,---,0.00,VWS V14.01,2013-01-24 12:53:00,
2013-01-24 07:58:00,-4.0,-6.0,30.22,WSW,248,0.0,0.0,91,0.00,,---,0.00,VWS V14.01,2013-01-24 12:58:00,
2013-01-24 08:03:00,-4.0,-6.2,30.22,WSW,248,0.0,0.0,90,0.00,,---,0.00,VWS V14.01,2013-01-24 13:03:00,
2013-01-24 08:08:00,-5.0,-7.2,30.23,SW,225,0.0,0.0,90,0.00,,---,0.00,VWS V14.01,2013-01-24 13:08:00,
2013-01-24 08:13:00,-4.0,-6.2,30.23,ESE,112,0.0,0.0,90,0.00,,---,0.00,VWS V14.01,2013-01-24 13:13:00,
2013-01-24 08:18:00,-4.0,-6.2,30.24,ENE,68,0.0,0.0,90,0.00,,---,0.00,VWS V14.01,2013-01-24 13:18:00,
2013-01-24 08:24:00,-4.0,-6.2,30.24,ENE,68,0.0,0.0,90,0.00,,---,0.00,VWS V14.01,2013-01-24 13:24:00,
2013-01-24 08:29:00,-4.0,-6.2,30.25,ENE,68,0.0,0.0,90,0.00,,---,0.00,VWS V14.01,2013-01-24 13:29:00,
2013-01-24 08:34:00,-3.0,-5.0,30.25,ENE,68,0.0,0.0,91,0.00,,---,0.00,VWS V14.01,2013-01-24 13:34:00,
2013-01-24 08:39:00,-2.0,-4.0,30.25,West,270,0.0,0.0,91,0.00,,---,0.00,VWS V14.01,2013-01-24 13:39:00,
2013-01-24 08:44:00,-1.0,-3.0,30.25,West,270,0.0,0.0,91,0.00,,---,0.00,VWS V14.01,2013-01-24 13:44:00,
2013-01-24 08:49:00,-1.0,-3.0,30.26,West,270,0.0,0.0,91,0.00,,---,0.00,VWS V14.01,2013-01-24 13:49:00,
2013-01-24 08:54:00,0.0,-2.0,30.26,West,270,0.0,0.0,91,0.00,,---,0.00,VWS V14.01,2013-01-24 13:54:00,
2013-01-24 08:59:00,0.0,-2.0,30.26,West,270,0.0,0.0,91,0.00,,---,0.00,VWS V14.01,2013-01-24 13:59:00,
2013-01-24 09:04:00,1.0,-1.0,30.26,SW,225,0.0,0.0,91,0.00,,---,0.00,VWS V14.01,2013-01-24 14:04:00,
2013-01-24 09:09:00,1.0,-1.0,30.27,SW,225,0.0,0.0,91,0.00,,---,0.00,VWS V14.01,2013-01-24 14:09:00,
2013-01-24 09:15:00,2.0,0.2,30.27,SW,225,0.0,0.0,92,0.00,,---,0.00,VWS V14.01,2013-01-24 14:15:00,
2013-01-24 09:20:00,3.0,1.2,30.27,WNW,292,0.0,1.0,92,0.00,,---,0.00,VWS V14.01,2013-01-24 14:20:00,
2013-01-24 09:25:00,3.0,1.0,30.27,NW,315,0.0,1.0,91,0.00,,---,0.00,VWS V14.01,2013-01-24 14:25:00,
2013-01-24 09:30:00,2.0,-0.5,30.28,NW,315,0.0,1.0,89,0.00,,---,0.00,VWS V14.01,2013-01-24 14:30:00,
2013-01-24 09:35:00,2.0,-0.2,30.29,NW,315,0.0,1.0,90,0.00,,---,0.00,VWS V14.01,2013-01-24 14:35:00,
2013-01-24 09:40:00,3.0,0.7,30.29,NW,315,0.0,0.0,90,0.00,,---,0.00,VWS V14.01,2013-01-24 14:40:00,
2013-01-24 09:45:00,3.0,0.7,30.29,NNW,338,0.0,1.0,90,0.00,,---,0.00,VWS V14.01,2013-01-24 14:45:00,
2013-01-24 09:50:00,3.0,0.7,30.30,NNW,338,0.0,1.0,90,0.00,,---,0.00,VWS V14.01,2013-01-24 14:50:00,
2013-01-24 09:55:00,5.0,3.2,30.30,NNW,338,0.0,1.0,92,0.00,,---,0.00,VWS V14.01,2013-01-24 14:55:00,
2013-01-24 10:01:00,5.0,3.0,30.30,NNW,338,0.0,0.0,91,0.00,,---,0.00,VWS V14.01,2013-01-24 15:01:00,
2013-01-24 10:06:00,6.0,3.9,30.30,NNW,338,0.0,0.0,91,0.00,,---,0.00,VWS V14.01,2013-01-24 15:06:00,
2013-01-24 10:11:00,7.0,5.2,30.31,NNW,338,1.0,1.0,92,0.00,,---,0.00,VWS V14.01,2013-01-24 15:11:00,
2013-01-24 10:16:00,7.0,4.7,30.31,West,270,0.0,1.0,90,0.00,,---,0.00,VWS V14.01,2013-01-24 15:16:00,
2013-01-24 10:21:00,7.0,4.4,30.31,WSW,248,1.0,1.0,89,0.00,,---,0.00,VWS V14.01,2013-01-24 15:21:00,
2013-01-24 10:26:00,8.0,5.4,30.31,WSW,248,0.0,1.0,89,0.00,,---,0.00,VWS V14.01,2013-01-24 15:26:00,
2013-01-24 10:31:00,8.0,5.2,30.32,WNW,292,1.0,1.0,88,0.00,,---,0.00,VWS V14.01,2013-01-24 15:31:00,
2013-01-24 10:36:00,9.0,6.4,30.32,WNW,292,1.0,2.0,89,0.00,,---,0.00,VWS V14.01,2013-01-24 15:36:00,
2013-01-24 10:42:00,9.0,6.4,30.32,West,270,1.0,1.0,89,0.00,,---,0.00,VWS V14.01,2013-01-24 15:42:00,
2013-01-24 10:47:00,10.0,7.4,30.33,West,270,1.0,3.0,89,0.00,,---,0.00,VWS V14.01,2013-01-24 15:47:00,
2013-01-24 10:52:00,10.0,7.7,30.33,WNW,292,4.0,5.0,90,0.00,,---,0.00,VWS V14.01,2013-01-24 15:52:00,
2013-01-24 10:57:00,11.0,8.4,30.33,West,270,1.0,5.0,89,0.00,,---,0.00,VWS V14.01,2013-01-24 15:57:00,
2013-01-24 11:02:00,12.0,9.4,30.34,WNW,292,1.0,4.0,89,0.00,,---,0.00,VWS V14.01,2013-01-24 16:02:00,
2013-01-24 11:07:00,12.0,9.4,30.34,NW,315,1.0,4.0,89,0.00,,---,0.00,VWS V14.01,2013-01-24 16:07:00,
2013-01-24 11:12:00,13.0,10.4,30.34,WNW,292,1.0,4.0,89,0.00,,---,0.00,VWS V14.01,2013-01-24 16:12:00,
2013-01-24 11:17:00,13.0,9.9,30.35,NW,315,3.0,4.0,87,0.00,,---,0.00,VWS V14.01,2013-01-24 16:17:00,
2013-01-24 11:22:00,13.0,9.4,30.35,NW,315,4.0,8.0,85,0.00,,---,0.00,VWS V14.01,2013-01-24 16:22:00,
2013-01-24 11:27:00,13.0,9.1,30.35,WNW,292,3.0,8.0,84,0.00,,---,0.00,VWS V14.01,2013-01-24 16:27:00,
2013-01-24 11:32:00,13.0,8.0,30.36,NNW,338,5.0,11.0,80,0.00,,---,0.00,VWS V14.01,2013-01-24 16:32:00,
2013-01-24 11:38:00,13.0,7.2,30.35,NNW,338,9.0,11.0,77,0.00,,---,0.00,VWS V14.01,2013-01-24 16:38:00,
2013-01-24 11:43:00,13.0,7.2,30.36,NNW,338,8.0,10.0,77,0.00,,---,0.00,VWS V14.01,2013-01-24 16:43:00,
2013-01-24 11:48:00,13.0,7.7,30.36,NNW,338,4.0,10.0,79,0.00,,---,0.00,VWS V14.01,2013-01-24 16:48:00,
2013-01-24 11:53:00,13.0,8.6,30.36,WNW,292,3.0,10.0,82,0.00,,---,0.00,VWS V14.01,2013-01-24 16:53:00,
2013-01-24 11:58:00,13.0,9.1,30.36,WNW,292,3.0,10.0,84,0.00,,---,0.00,VWS V14.01,2013-01-24 16:58:00,
2013-01-24 12:03:00,13.0,9.4,30.36,NW,315,3.0,10.0,85,0.00,,---,0.00,VWS V14.01,2013-01-24 17:03:00,
2013-01-24 12:08:00,13.0,9.1,30.36,WNW,292,3.0,10.0,84,0.00,,---,0.00,VWS V14.01,2013-01-24 17:08:00,
2013-01-24 12:13:00,13.0,9.4,30.37,NW,315,6.0,12.0,85,0.00,,---,0.00,VWS V14.01,2013-01-24 17:13:00,
2013-01-24 12:18:00,13.0,9.9,30.37,WNW,292,6.0,12.0,87,0.00,,---,0.00,VWS V14.01,2013-01-24 17:18:00,
2013-01-24 12:24:00,13.0,9.9,30.37,NNW,338,5.0,14.0,87,0.00,,---,0.00,VWS V14.01,2013-01-24 17:24:00,
2013-01-24 12:29:00,13.0,9.9,30.37,NNW,338,6.0,14.0,87,0.00,,---,0.00,VWS V14.01,2013-01-24 17:29:00,
2013-01-24 12:34:00,13.0,9.9,30.37,West,270,8.0,14.0,87,0.00,,---,0.00,VWS V14.01,2013-01-24 17:34:00,
2013-01-24 12:39:00,13.0,9.6,30.37,WNW,292,3.0,14.0,86,0.00,,---,0.00,VWS V14.01,2013-01-24 17:39:00,
2013-01-24 12:44:00,13.0,9.1,30.37,WNW,292,8.0,13.0,84,0.00,,---,0.00,VWS V14.01,2013-01-24 17:44:00,
2013-01-24 12:49:00,13.0,9.4,30.37,NNW,338,4.0,15.0,85,0.00,,---,0.00,VWS V14.01,2013-01-24 17:49:00,
2013-01-24 12:54:00,13.0,9.6,30.37,WNW,292,6.0,15.0,86,0.00,,---,0.00,VWS V14.01,2013-01-24 17:54:00,
2013-01-24 12:59:00,13.0,9.6,30.37,WNW,292,5.0,15.0,86,0.00,,---,0.00,VWS V14.01,2013-01-24 17:59:00,
2013-01-24 13:04:00,13.0,9.1,30.37,North,0,3.0,11.0,84,0.00,,---,0.00,VWS V14.01,2013-01-24 18:04:00,
2013-01-24 13:09:00,13.0,9.6,30.37,NW,315,3.0,11.0,86,0.00,,---,0.00,VWS V14.01,2013-01-24 18:09:00,
2013-01-24 13:15:00,13.0,9.4,30.37,WNW,292,8.0,14.0,85,0.00,,---,0.00,VWS V14.01,2013-01-24 18:15:00,
2013-01-24 13:20:00,12.0,8.9,30.37,WNW,292,5.0,7.0,87,0.00,,---,0.00,VWS V14.01,2013-01-24 18:20:00,
2013-01-24 13:25:00,12.0,9.1,30.37,WNW,292,2.0,11.0,88,0.00,,---,0.00,VWS V14.01,2013-01-24 18:25:00,
2013-01-24 13:30:00,12.0,8.6,30.37,WNW,292,4.0,12.0,86,0.00,,---,0.00,VWS V14.01,2013-01-24 18:30:00,
2013-01-24 13:35:00,12.0,8.4,30.37,WNW,292,7.0,12.0,85,0.00,,---,0.00,VWS V14.01,2013-01-24 18:35:00,
2013-01-24 13:40:00,13.0,8.3,30.37,NW,315,3.0,10.0,81,0.00,,---,0.00,VWS V14.01,2013-01-24 18:40:00,
2013-01-24 13:45:00,13.0,8.0,30.38,WNW,292,4.0,12.0,80,0.00,,---,0.00,VWS V14.01,2013-01-24 18:45:00,
2013-01-24 13:51:00,13.0,7.7,30.38,NNW,338,5.0,12.0,79,0.00,,---,0.00,VWS V14.01,2013-01-24 18:51:00,
2013-01-24 13:56:00,13.0,6.9,30.38,WNW,292,11.0,14.0,76,0.00,,---,0.00,VWS V14.01,2013-01-24 18:56:00,
2013-01-24 14:01:00,12.0,6.2,30.38,WNW,292,5.0,9.0,77,0.00,,---,0.00,VWS V14.01,2013-01-24 19:01:00,
2013-01-24 14:06:00,12.0,7.0,30.38,North,0,5.0,9.0,80,0.00,,---,0.00,VWS V14.01,2013-01-24 19:06:00,
2013-01-24 14:11:00,12.0,7.3,30.38,NW,315,6.0,9.0,81,0.00,,---,0.00,VWS V14.01,2013-01-24 19:11:00,
2013-01-24 14:16:00,12.0,5.3,30.39,West,270,3.0,11.0,74,0.00,,---,0.00,VWS V14.01,2013-01-24 19:16:00,
2013-01-24 14:21:00,12.0,5.6,30.39,NW,315,3.0,8.0,75,0.00,,---,0.00,VWS V14.01,2013-01-24 19:21:00,
2013-01-24 14:26:00,12.0,4.7,30.39,NNW,338,6.0,9.0,72,0.00,,---,0.00,VWS V14.01,2013-01-24 19:26:00,
2013-01-24 14:31:00,12.0,4.7,30.40,NW,315,3.0,11.0,72,0.00,,---,0.00,VWS V14.01,2013-01-24 19:31:00,
2013-01-24 14:36:00,12.0,5.0,30.40,West,270,3.0,12.0,73,0.00,,---,0.00,VWS V14.01,2013-01-24 19:36:00,
2013-01-24 14:41:00,11.0,4.6,30.40,WNW,292,5.0,6.0,75,0.00,,---,0.00,VWS V14.01,2013-01-24 19:41:00,
2013-01-24 14:46:00,11.0,4.6,30.40,NNW,338,3.0,9.0,75,0.00,,---,0.00,VWS V14.01,2013-01-24 19:46:00,
2013-01-24 14:52:00,11.0,4.1,30.41,NNW,338,8.0,9.0,73,0.00,,---,0.00,VWS V14.01,2013-01-24 19:52:00,
2013-01-24 14:57:00,11.0,4.3,30.41,NNW,338,2.0,9.0,74,0.00,,---,0.00,VWS V14.01,2013-01-24 19:57:00,
2013-01-24 15:02:00,11.0,4.6,30.41,NNW,338,4.0,9.0,75,0.00,,---,0.00,VWS V14.01,2013-01-24 20:02:00,
2013-01-24 15:07:00,12.0,5.6,30.41,NW,315,3.0,9.0,75,0.00,,---,0.00,VWS V14.01,2013-01-24 20:07:00,
2013-01-24 15:12:00,12.0,5.3,30.42,NW,315,2.0,9.0,74,0.00,,---,0.00,VWS V14.01,2013-01-24 20:12:00,
2013-01-24 15:17:00,12.0,5.3,30.42,WNW,292,1.0,9.0,74,0.00,,---,0.00,VWS V14.01,2013-01-24 20:17:00,
2013-01-24 15:22:00,13.0,6.0,30.42,WNW,292,5.0,8.0,73,0.00,,---,0.00,VWS V14.01,2013-01-24 20:22:00,
2013-01-24 15:27:00,13.0,6.3,30.42,NNW,338,2.0,9.0,74,0.00,,---,0.00,VWS V14.01,2013-01-24 20:27:00,
2013-01-24 15:32:00,14.0,6.7,30.42,NW,315,3.0,9.0,72,0.00,,---,0.00,VWS V14.01,2013-01-24 20:32:00,
2013-01-24 15:37:00,14.0,6.7,30.42,NNW,338,1.0,9.0,72,0.00,,---,0.00,VWS V14.01,2013-01-24 20:37:00,
2013-01-24 15:42:00,13.0,4.8,30.42,WNW,292,5.0,10.0,69,0.00,,---,0.00,VWS V14.01,2013-01-24 20:42:00,
2013-01-24 15:48:00,13.0,5.1,30.43,WNW,292,1.0,10.0,70,0.00,,---,0.00,VWS V14.01,2013-01-24 20:48:00,
2013-01-24 15:53:00,12.0,3.8,30.43,NNW,338,4.0,13.0,69,0.00,,---,0.00,VWS V14.01,2013-01-24 20:53:00,
2013-01-24 15:58:00,12.0,4.1,30.43,NW,315,3.0,13.0,70,0.00,,---,0.00,VWS V14.01,2013-01-24 20:58:00,
2013-01-24 16:03:00,12.0,4.1,30.43,NNW,338,5.0,8.0,70,0.00,,---,0.00,VWS V14.01,2013-01-24 21:03:00,
2013-01-24 16:08:00,12.0,3.8,30.43,NW,315,3.0,11.0,69,0.00,,---,0.00,VWS V14.01,2013-01-24 21:08:00,
2013-01-24 16:13:00,12.0,3.8,30.44,NNW,338,2.0,11.0,69,0.00,,---,0.00,VWS V14.01,2013-01-24 21:13:00,
2013-01-24 16:18:00,12.0,3.8,30.43,WNW,292,3.0,11.0,69,0.00,,---,0.00,VWS V14.01,2013-01-24 21:18:00,
2013-01-24 16:23:00,12.0,3.8,30.44,North,0,5.0,7.0,69,0.00,,---,0.00,VWS V14.01,2013-01-24 21:23:00,
2013-01-24 16:28:00,12.0,3.8,30.43,NNW,338,2.0,8.0,69,0.00,,---,0.00,VWS V14.01,2013-01-24 21:28:00,
2013-01-24 16:34:00,11.0,2.8,30.44,WNW,292,2.0,8.0,69,0.00,,---,0.00,VWS V14.01,2013-01-24 21:34:00,
2013-01-24 16:39:00,11.0,2.8,30.43,North,0,1.0,8.0,69,0.00,,---,0.00,VWS V14.01,2013-01-24 21:39:00,
2013-01-24 16:44:00,11.0,2.2,30.44,North,0,3.0,10.0,67,0.00,,---,0.00,VWS V14.01,2013-01-24 21:44:00,
2013-01-24 16:49:00,11.0,2.2,30.44,WNW,292,6.0,10.0,67,0.00,,---,0.00,VWS V14.01,2013-01-24 21:49:00,
2013-01-24 16:54:00,11.0,2.2,30.44,NNE,22,4.0,10.0,67,0.00,,---,0.00,VWS V14.01,2013-01-24 21:54:00,
2013-01-24 16:59:00,11.0,2.2,30.44,NW,315,3.0,10.0,67,0.00,,---,0.00,VWS V14.01,2013-01-24 21:59:00,
2013-01-24 17:04:00,11.0,2.2,30.44,WNW,292,5.0,8.0,67,0.00,,---,0.00,VWS V14.01,2013-01-24 22:04:00,
2013-01-24 17:09:00,11.0,2.2,30.44,NW,315,1.0,10.0,67,0.00,,---,0.00,VWS V14.01,2013-01-24 22:09:00,
2013-01-24 17:14:00,10.0,0.9,30.44,NW,315,5.0,10.0,66,0.00,,---,0.00,VWS V14.01,2013-01-24 22:14:00,
2013-01-24 17:20:00,10.0,1.2,30.45,NW,315,3.0,10.0,67,0.00,,---,0.00,VWS V14.01,2013-01-24 22:20:00,
2013-01-24 17:25:00,10.0,1.2,30.44,WNW,292,2.0,8.0,67,0.00,,---,0.00,VWS V14.01,2013-01-24 22:25:00,
2013-01-24 17:30:00,10.0,1.2,30.44,WNW,292,3.0,8.0,67,0.00,,---,0.00,VWS V14.01,2013-01-24 22:30:00,
2013-01-24 17:35:00,10.0,1.6,30.45,WNW,292,3.0,8.0,68,0.00,,---,0.00,VWS V14.01,2013-01-24 22:35:00,
2013-01-24 17:40:00,9.0,0.6,30.45,West,270,4.0,4.0,68,0.00,,---,0.00,VWS V14.01,2013-01-24 22:40:00,
2013-01-24 17:45:00,9.0,0.9,30.44,West,270,2.0,5.0,69,0.00,,---,0.00,VWS V14.01,2013-01-24 22:45:00,
2013-01-24 17:50:00,8.0,-0.1,30.45,WNW,292,2.0,5.0,69,0.00,,---,0.00,VWS V14.01,2013-01-24 22:50:00,
2013-01-24 17:56:00,7.0,-1.0,30.45,WNW,292,2.0,5.0,69,0.00,,---,0.00,VWS V14.01,2013-01-24 22:56:00,
2013-01-24 18:01:00,6.0,-1.7,30.45,WNW,292,2.0,3.0,70,0.00,,---,0.00,VWS V14.01,2013-01-24 23:01:00,
2013-01-24 18:06:00,5.0,-2.6,30.45,WNW,292,1.0,3.0,70,0.00,,---,0.00,VWS V14.01,2013-01-24 23:06:00,
2013-01-24 18:11:00,4.0,-3.0,30.46,WNW,292,2.0,5.0,72,0.00,,---,0.00,VWS V14.01,2013-01-24 23:11:00,
2013-01-24 18:16:00,4.0,-2.7,30.46,West,270,2.0,5.0,73,0.00,,---,0.00,VWS V14.01,2013-01-24 23:16:00,
2013-01-24 18:21:00,4.0,-2.2,30.46,West,270,1.0,5.0,75,0.00,,---,0.00,VWS V14.01,2013-01-24 23:21:00,
2013-01-24 18:26:00,4.0,-1.9,30.46,WNW,292,1.0,5.0,76,0.00,,---,0.00,VWS V14.01,2013-01-24 23:26:00,
2013-01-24 18:31:00,3.0,-2.6,30.46,NW,315,1.0,5.0,77,0.00,,---,0.00,VWS V14.01,2013-01-24 23:31:00,
2013-01-24 18:36:00,3.0,-2.6,30.46,WNW,292,2.0,5.0,77,0.00,,---,0.00,VWS V14.01,2013-01-24 23:36:00,
2013-01-24 18:41:00,3.0,-2.3,30.46,WNW,292,3.0,4.0,78,0.00,,---,0.00,VWS V14.01,2013-01-24 23:41:00,
2013-01-24 18:47:00,3.0,-2.0,30.46,WNW,292,3.0,5.0,79,0.00,,---,0.00,VWS V14.01,2013-01-24 23:47:00,
2013-01-24 18:52:00,4.0,-0.8,30.46,WNW,292,2.0,5.0,80,0.00,,---,0.00,VWS V14.01,2013-01-24 23:52:00,
2013-01-24 18:57:00,4.0,-0.8,30.47,WNW,292,2.0,5.0,80,0.00,,---,0.00,VWS V14.01,2013-01-24 23:57:00,
2013-01-24 19:02:00,4.0,-0.8,30.47,WNW,292,3.0,3.0,80,0.00,,---,0.00,VWS V14.01,2013-01-25 00:02:00,
2013-01-24 19:07:00,5.0,0.2,30.47,WNW,292,2.0,3.0,80,0.00,,---,0.00,VWS V14.01,2013-01-25 00:07:00,
2013-01-24 19:12:00,5.0,0.2,30.47,West,270,1.0,3.0,80,0.00,,---,0.00,VWS V14.01,2013-01-25 00:12:00,
2013-01-24 19:17:00,5.0,-0.1,30.47,WNW,292,1.0,3.0,79,0.00,,---,0.00,VWS V14.01,2013-01-25 00:17:00,
2013-01-24 19:22:00,5.0,-0.1,30.47,West,270,1.0,3.0,79,0.00,,---,0.00,VWS V14.01,2013-01-25 00:22:00,
2013-01-24 19:27:00,4.0,-1.0,30.47,West,270,2.0,3.0,79,0.00,,---,0.00,VWS V14.01,2013-01-25 00:27:00,
2013-01-24 19:32:00,4.0,-1.0,30.47,WSW,248,2.0,3.0,79,0.00,,---,0.00,VWS V14.01,2013-01-25 00:32:00,
2013-01-24 19:37:00,4.0,-1.0,30.47,WSW,248,1.0,3.0,79,0.00,,---,0.00,VWS V14.01,2013-01-25 00:37:00,
2013-01-24 19:43:00,4.0,-0.8,30.47,SW,225,0.0,1.0,80,0.00,,---,0.00,VWS V14.01,2013-01-25 00:43:00,
2013-01-24 19:48:00,4.0,-0.5,30.47,West,270,1.0,1.0,81,0.00,,---,0.00,VWS V14.01,2013-01-25 00:48:00,
2013-01-24 19:53:00,3.0,-1.5,30.47,WSW,248,1.0,2.0,81,0.00,,---,0.00,VWS V14.01,2013-01-25 00:53:00,
2013-01-24 19:58:00,3.0,-1.2,30.47,SW,225,1.0,2.0,82,0.00,,---,0.00,VWS V14.01,2013-01-25 00:58:00,
2013-01-24 20:03:00,2.0,-2.2,30.47,SW,225,0.0,2.0,82,0.00,,---,0.00,VWS V14.01,2013-01-25 01:03:00,
2013-01-24 20:08:00,2.0,-2.5,30.47,WSW,248,1.0,2.0,81,0.00,,---,0.00,VWS V14.01,2013-01-25 01:08:00,
2013-01-24 20:13:00,0.0,-4.7,30.47,SW,225,0.0,2.0,80,0.00,,---,0.00,VWS V14.01,2013-01-25 01:13:00,
2013-01-24 20:18:00,-1.0,-5.4,30.47,SW,225,1.0,2.0,81,0.00,,---,0.00,VWS V14.01,2013-01-25 01:18:00,
2013-01-24 20:23:00,-1.0,-5.2,30.46,SW,225,1.0,1.0,82,0.00,,---,0.00,VWS V14.01,2013-01-25 01:23:00,
2013-01-24 20:28:00,-1.0,-4.9,30.46,SW,225,1.0,1.0,83,0.00,,---,0.00,VWS V14.01,2013-01-25 01:28:00,
2013-01-24 20:34:00,-1.0,-4.7,30.46,SW,225,2.0,3.0,84,0.00,,---,0.00,VWS V14.01,2013-01-25 01:34:00,
2013-01-24 20:39:00,0.0,-3.4,30.46,SW,225,1.0,3.0,85,0.00,,---,0.00,VWS V14.01,2013-01-25 01:39:00,
2013-01-24 20:44:00,0.0,-3.2,30.46,West,270,0.0,2.0,86,0.00,,---,0.00,VWS V14.01,2013-01-25 01:44:00,
2013-01-24 20:49:00,-1.0,-4.4,30.46,SW,225,0.0,3.0,85,0.00,,---,0.00,VWS V14.01,2013-01-25 01:49:00,
2013-01-24 20:54:00,-2.0,-5.6,30.46,WSW,248,0.0,3.0,84,0.00,,---,0.00,VWS V14.01,2013-01-25 01:54:00,
2013-01-24 20:59:00,-2.0,-5.6,30.46,SW,225,0.0,3.0,84,0.00,,---,0.00,VWS V14.01,2013-01-25 01:59:00,
2013-01-24 21:04:00,-2.0,-5.2,30.46,SW,225,1.0,1.0,86,0.00,,---,0.00,VWS V14.01,2013-01-25 02:04:00,
2013-01-24 21:09:00,-2.0,-5.2,30.46,SW,225,0.0,2.0,86,0.00,,---,0.00,VWS V14.01,2013-01-25 02:09:00,
2013-01-24 21:14:00,-2.0,-5.2,30.46,WSW,248,0.0,2.0,86,0.00,,---,0.00,VWS V14.01,2013-01-25 02:14:00,
2013-01-24 21:19:00,-3.0,-6.1,30.46,SW,225,1.0,2.0,86,0.00,,---,0.00,VWS V14.01,2013-01-25 02:19:00,
2013-01-24 21:25:00,-3.0,-6.1,30.46,SW,225,0.0,1.0,86,0.00,,---,0.00,VWS V14.01,2013-01-25 02:25:00,
2013-01-24 21:30:00,-4.0,-7.1,30.45,SW,225,0.0,1.0,86,0.00,,---,0.00,VWS V14.01,2013-01-25 02:30:00,
2013-01-24 21:35:00,-4.0,-7.1,30.45,NW,315,0.0,1.0,86,0.00,,---,0.00,VWS V14.01,2013-01-25 02:35:00,
2013-01-24 21:40:00,-4.0,-6.9,30.45,NW,315,0.0,0.0,87,0.00,,---,0.00,VWS V14.01,2013-01-25 02:40:00,
2013-01-24 21:45:00,-4.0,-6.9,30.45,WNW,292,0.0,0.0,87,0.00,,---,0.00,VWS V14.01,2013-01-25 02:45:00,
2013-01-24 21:50:00,-3.0,-5.7,30.45,West,270,0.0,1.0,88,0.00,,---,0.00,VWS V14.01,2013-01-25 02:50:00,
2013-01-24 21:55:00,-3.0,-5.7,30.45,WSW,248,0.0,1.0,88,0.00,,---,0.00,VWS V14.01,2013-01-25 02:55:00,
2013-01-24 22:00:00,-3.0,-5.4,30.45,WSW,248,0.0,0.0,89,0.00,,---,0.00,VWS V14.01,2013-01-25 03:00:00,
2013-01-24 22:05:00,-3.0,-5.4,30.45,WSW,248,0.0,0.0,89,0.00,,---,0.00,VWS V14.01,2013-01-25 03:05:00,
2013-01-24 22:10:00,-3.0,-5.7,30.45,WNW,292,0.0,0.0,88,0.00,,---,0.00,VWS V14.01,2013-01-25 03:10:00,
2013-01-24 22:15:00,-3.0,-5.7,30.45,NNW,338,0.0,0.0,88,0.00,,---,0.00,VWS V14.01,2013-01-25 03:15:00,
2013-01-24 22:20:00,-3.0,-5.7,30.45,NNW,338,0.0,0.0,88,0.00,,---,0.00,VWS V14.01,2013-01-25 03:20:00,
2013-01-24 22:26:00,-3.0,-5.7,30.44,NNW,338,0.0,0.0,88,0.00,,---,0.00,VWS V14.01,2013-01-25 03:26:00,
2013-01-24 22:31:00,-2.0,-4.4,30.45,NNW,338,0.0,0.0,89,0.00,,---,0.00,VWS V14.01,2013-01-25 03:31:00,
2013-01-24 22:36:00,-1.0,-3.5,30.45,SE,135,0.0,0.0,89,0.00,,---,0.00,VWS V14.01,2013-01-25 03:36:00,
2013-01-24 22:41:00,-1.0,-3.2,30.45,SE,135,0.0,0.0,90,0.00,,---,0.00,VWS V14.01,2013-01-25 03:41:00,
2013-01-24 22:46:00,0.0,-2.2,30.45,SE,135,0.0,0.0,90,0.00,,---,0.00,VWS V14.01,2013-01-25 03:46:00,
2013-01-24 22:51:00,0.0,-2.2,30.45,SE,135,0.0,0.0,90,0.00,,---,0.00,VWS V14.01,2013-01-25 03:51:00,
2013-01-24 22:56:00,0.0,-2.5,30.45,SE,135,0.0,0.0,89,0.00,,---,0.00,VWS V14.01,2013-01-25 03:56:00,
2013-01-24 23:01:00,0.0,-2.5,30.44,ESE,112,0.0,0.0,89,0.00,,---,0.00,VWS V14.01,2013-01-25 04:01:00,
2013-01-24 23:06:00,-1.0,-3.7,30.44,ESE,112,0.0,0.0,88,0.00,,---,0.00,VWS V14.01,2013-01-25 04:06:00,
2013-01-24 23:11:00,-2.0,-4.9,30.44,ESE,112,0.0,0.0,87,0.00,,---,0.00,VWS V14.01,2013-01-25 04:11:00,
2013-01-24 23:17:00,-3.0,-5.9,30.44,North,0,0.0,0.0,87,0.00,,---,0.00,VWS V14.01,2013-01-25 04:17:00,
2013-01-24 23:22:00,-3.0,-5.9,30.44,NNE,22,0.0,0.0,87,0.00,,---,0.00,VWS V14.01,2013-01-25 04:22:00,
2013-01-24 23:27:00,-4.0,-6.9,30.44,NNE,22,0.0,0.0,87,0.00,,---,0.00,VWS V14.01,2013-01-25 04:27:00,
2013-01-24 23:32:00,-4.0,-6.7,30.45,NW,315,0.0,0.0,88,0.00,,---,0.00,VWS V14.01,2013-01-25 04:32:00,
2013-01-24 23:37:00,-4.0,-6.7,30.45,WNW,292,0.0,0.0,88,0.00,,---,0.00,VWS V14.01,2013-01-25 04:37:00,
2013-01-24 23:42:00,-4.0,-6.7,30.46,WNW,292,0.0,0.0,88,0.00,,---,0.00,VWS V14.01,2013-01-25 04:42:00,
2013-01-24 23:47:00,-4.0,-6.7,30.46,WNW,292,0.0,0.0,88,0.00,,---,0.00,VWS V14.01,2013-01-25 04:47:00,
2013-01-24 23:52:00,-4.0,-6.7,30.45,North,0,0.0,0.0,88,0.00,,---,0.00,VWS V14.01,2013-01-25 04:52:00,
2013-01-24 23:57:00,-4.0,-6.7,30.45,North,0,0.0,0.0,88,0.00,,---,0.00,VWS V14.01,2013-01-25 04:57:00,